Showing default

GALILEO 13 (26A), 41550

Orbit data source: Space-Track

GALILEO 13 (26A), 41550 is a payload satellite owned by GNSS Agency (ESA) that was launched on Tue, 24 May 2016 UTC via a SOYUZ-ST-B launch vehicle from the French Guiana (FRGUI). Payload-class satellites include a variety of spacecraft equipped with specific instruments for various scientific and technological missions. These include communications satellites like Starlink; space stations such as the ISS; scientific satellites like the Hubble; Earth observation satellites from companies like Planet Labs, Umbra, and HawkEye 360; GPS; miniature CubeSats for education and research; and military/defense satellites.

Loading next visibility...
Identifier
41550, 2016-030B
Orbit
Active
Country
Flag of ESAESA
Related business
Manufacturer
OHB
Mission
Operational Civil Navigation
Bus & Motor
GALILEOSAT, AOCS
Mass
733 kg wet, 660 kg dry
Launch date (UTC)
2016-05-24 (10 years ago)
Launch vehicle
SOYUZ-ST-B
Launch site
French Guiana (FRGUI)
Object type
Payload
Rocket body
Debris
Shape & HBR
Box + 2 Pan, 7.3 m
Radar Cross Section
9.223 m², Large (>1 m²)

Expand to show TLE details & history
Last TLE update: 10 hours ago

TLE from 10 hours ago
0 GALILEO 13 (26A)
1 41550U 16030B   26151.04280420  .00000031  00000-0  00000+0 0  9993
2 41550  55.0989 222.1646 0003049 229.4048 130.6565  1.70474288 62376
Epoch: 2026-05-31T01:01Z
TLE epoch observation values (Epoch: 2026-05-31T01:01:38.282Z)
Latitude
0.00004°
Longitude
-41.7895°
Altitude
23,228.3 km
Speed
3.669 km/s
True Right ascension
14h 48m 40s
True Declination
0° 00' 00"
Sunlit
Object was in daylight at epoch
Visualization orbit readout
Latitude
Unknown
Longitude
Unknown
Altitude
Unknown
Speed
Unknown
Apparent Right ascension
Unknown
Apparent Declination
Unknown
Sunlit
N/A
Visualization observer readout
Local Sidereal Time
20:32:15
Azimuth
Unknown
Elevation
Unknown
Doppler factor
Unknown
Orbital elements
Apogee altitude
23,231.18 km
Perigee altitude
23,213.129 km
Semi-major axis
29,600.292 km
Eccentricity
0.0003
Inclination
55.0989°
RAAN
222.1646°
Arg. of periapsis
229.4048°
True anomaly
130.683°
Mean anomaly
130.6565°
Eccentric anomaly
130.66975°
Mean motion
0.42619 °/min
Orbital period
844.7 mins
BSTAR
0
Loading maneuver chart data...
Computing Atmospheric mass density...
Loading historical data...
Loading historical data...
Loading historical data...
Loading historical data...
Loading historical data...
Loading historical data...
Loading historical data...
Other satellites on launch #30 in the year 2016 (2016-05-24 UTC)

Documentation

Showing up to 5 results
|